Weather History for Pucallpa, Peru

Change the Weather History Date:

Sunday, October 7, 2012

  Actual Average Record
Temperature  
Mean Temperature 79 °F -  
Max Temperature 84 °F 88 °F 96 °F (2010)
Min Temperature 74 °F 71 °F 71 °F (1996)
Cooling Degree Days 14    
Growing Degree Days 29 (Base 50)    
Moisture  
Dew Point 74 °F    
Average Humidity 88    
Maximum Humidity 96    
Minimum Humidity 74    
Precipitation  
Precipitation 0.00 in - - ()
Sea Level Pressure  
Sea Level Pressure 29.90 in    
Wind  
Wind Speed 3 mph ()    
Max Wind Speed 12 mph    
Max Gust Speed -    
Visibility 6.2 miles    
Events      
Averages and records for this station are not official NWS values.
T = Trace of Precipitation, MM = Missing Value Source: Averaged Metar Reports

Daily Weather History Graph

Daily Weather History Graph

Search for Another Location

Airport:

Trip Planner

Search our weather history database for the weather conditions in past years. The results will help you decide how hot, cold, wet, or windy it might be!

Date:

Astronomy

Oct. 07, 2012 Rise Set
Actual Time 5:39 AM PET 5:52 PM PET
Civil Twilight 5:18 AM PET 6:13 PM PET
Nautical Twilight 4:53 AM PET 6:38 PM PET
Astronomical Twilight 4:29 AM PET 7:02 PM PET
Moon No Moon Rise 11:11 AM PET (10/7)
Length of Visible Light 12h 55m
Length of Day
12h 13m
Waning Gibbous, 56% of the Moon is Illuminated
Oct 7
Waning Gibbous
Oct 8
Last Quarter
Oct 15
New
Oct 21
First Quarter
Oct 29
Full

Hourly Weather History & Observations

Time (PET) Temp. Heat Index Dew Point Humidity Pressure Visibility Wind Dir Wind Speed Gust Speed Precip Events Conditions
12:00 AM 75.2 °F - 73.4 °F 94% 29.86 in 6.2 mi Calm Calm - N/A   Scattered Clouds
1:00 AM 75 °F - 74 °F 95% 29.83 in 6 mi WNW 3.5 mph - -   Partly Cloudy
1:00 AM 75.2 °F - 73.4 °F 94% 29.86 in 6.2 mi WNW 3.5 mph - N/A   Scattered Clouds
2:00 AM 75.2 °F - 73.4 °F 94% 29.86 in 6.2 mi NW 2.3 mph - N/A   Mostly Cloudy
3:00 AM 75.2 °F - 73.4 °F 94% 29.86 in 6.2 mi Calm Calm - N/A   Mostly Cloudy
4:00 AM 74 °F - 73 °F 96% 29.82 in 6 mi NE 2.3 mph - -   Partly Cloudy
4:00 AM 75.2 °F - 73.4 °F 94% 29.83 in 6.2 mi NE 2.3 mph - N/A   Mostly Cloudy
5:00 AM 75.2 °F - 73.4 °F 94% 29.86 in 6.2 mi Calm Calm - N/A   Mostly Cloudy
6:00 AM 75.2 °F - 73.4 °F 94% 29.89 in 6.2 mi Calm Calm - N/A   Scattered Clouds
7:00 AM 75 °F - 74 °F 95% 29.91 in 6 mi Calm Calm - -   Partly Cloudy
7:00 AM 75.2 °F - 73.4 °F 94% 29.92 in 6.2 mi Calm Calm - N/A   Mostly Cloudy
8:00 AM 77.0 °F - 75.2 °F 94% 29.95 in 6.2 mi Calm Calm - N/A   Overcast
9:00 AM 77.0 °F - 75.2 °F 94% 29.98 in 6.2 mi East 8.1 mph - N/A   Overcast
10:00 AM 78 °F - 73 °F 82% 30.00 in 6 mi East 10.4 mph - -   Partly Cloudy
10:00 AM 78.8 °F - 73.4 °F 83% 29.98 in 6.2 mi East 10.4 mph - N/A   Mostly Cloudy
11:00 AM 77.0 °F - 75.2 °F 94% 29.98 in 6.2 mi East 11.5 mph - N/A   Overcast
12:00 PM 77.0 °F - 73.4 °F 89% 29.98 in 6.2 mi East 8.1 mph - N/A   Overcast
1:00 PM 80 °F - 74 °F 79% 29.95 in 6 mi East 3.5 mph - -   Partly Cloudy
1:00 PM 80.6 °F 86.2 °F 75.2 °F 84% 29.95 in 6.2 mi East 3.5 mph - N/A   Overcast
2:00 PM 84.2 °F 94.1 °F 77.0 °F 79% 29.89 in 6.2 mi Variable 2.3 mph - N/A   Overcast
3:00 PM 84.2 °F 94.1 °F 77.0 °F 79% 29.86 in 6.2 mi ESE 6.9 mph - N/A   Overcast
4:00 PM 82 °F - 75 °F 74% 29.83 in 6 mi East 5.8 mph - -   Partly Cloudy
4:00 PM 82.4 °F 89.5 °F 75.2 °F 79% 29.86 in 6.2 mi East 5.8 mph - N/A   Mostly Cloudy
5:00 PM 82.4 °F 89.5 °F 75.2 °F 79% 29.83 in 6.2 mi ENE 4.6 mph - N/A   Scattered Clouds
6:00 PM 80.6 °F 86.2 °F 75.2 °F 84% 29.83 in 6.2 mi East 3.5 mph - N/A   Scattered Clouds
7:00 PM 78.8 °F - 75.2 °F 89% 29.86 in 6.2 mi SE 5.8 mph - N/A   Partly Cloudy
8:00 PM 78.8 °F - 73.4 °F 83% 29.89 in 6.2 mi SE 6.9 mph - N/A   Scattered Clouds
9:00 PM 77.0 °F - 73.4 °F 89% 29.92 in 6.2 mi East 4.6 mph - N/A   Mostly Cloudy
10:00 PM 77 °F - 74 °F 87% 29.92 in 6 mi SW 2.3 mph - -   Partly Cloudy
10:00 PM 77.0 °F - 73.4 °F 89% 29.95 in 6.2 mi SW 2.3 mph - N/A   Mostly Cloudy
11:00 PM 77.0 °F - 73.4 °F 89% 29.95 in 6.2 mi SSW 3.5 mph - N/A   Overcast